Weather History for KRKR - October, 2012

Change the Weather History Date:

Friday, October 26, 2012

  Actual Average (KFSM) Record (KFSM)
Temperature  
Mean Temperature 48 °F 60 °F  
Max Temperature 55 °F 72 °F 90 °F (1891)
Min Temperature 42 °F 48 °F 30 °F (1994)
Degree Days  
Heating Degree Days 16 7  
Month to date heating degree days 100  
Since 1 July heating degree days 117  
Cooling Degree Days 0 1  
Month to date cooling degree days 62  
Year to date cooling degree days 2040  
Moisture  
Dew Point 39 °F    
Average Humidity 68    
Maximum Humidity 87    
Minimum Humidity 51    
Precipitation  
Precipitation 0.00 in 0.15 in 2.91 in (1939)
Month to date precipitation 3.61  
Year to date precipitation 37.02  
Sea Level Pressure  
Sea Level Pressure 30.26 in    
Wind  
Wind Speed 9 mph (North)    
Max Wind Speed 15 mph    
Max Gust Speed 21 mph    
Visibility 10 miles    
Events Thunderstorm    
T = Trace of Precipitation, MM = Missing Value Source: NWS Daily Summary

Daily Weather History Graph

Daily Weather History Graph

Search for Another Location

Airport or City:

Trip Planner

Search our weather history database for the weather conditions in past years. The results will help you decide how hot, cold, wet, or windy it might be!

Date:

Astronomy

Oct. 26, 2012 Rise Set
Actual Time 7:34 AM CDT 6:29 PM CDT
Civil Twilight 7:08 AM CDT 6:55 PM CDT
Nautical Twilight 6:38 AM CDT 7:25 PM CDT
Astronomical Twilight 6:09 AM CDT 7:54 PM CDT
Moon 4:41 PM CDT (10/26) 4:37 AM CDT (10/26)
Length of Visible Light 11h 47m
Length of Day
10h 55m
Waxing Gibbous, 91% of the Moon is Illuminated
Oct 26
Waxing Gibbous
Oct 29
Full
Nov 6
Last Quarter
Nov 13
New
Nov 20
First Quarter

Hourly Weather History & Observations

Time (CDT) Temp. Windchill Dew Point Humidity Pressure Visibility Wind Dir Wind Speed Gust Speed Precip Events Conditions
12:35 AM 51.8 °F - 44.6 °F 76% 30.15 in 10.0 mi North 10.4 mph 17.3 mph N/A   Mostly Cloudy
12:55 AM 51.8 °F - 44.6 °F 76% 30.16 in 10.0 mi North 6.9 mph - N/A   Mostly Cloudy
1:15 AM 51.8 °F - 44.6 °F 76% 30.17 in 10.0 mi North 10.4 mph 16.1 mph N/A   Overcast
1:35 AM 50.0 °F - 44.6 °F 82% 30.17 in 10.0 mi North 9.2 mph - N/A   Overcast
1:55 AM 48.2 °F - 42.8 °F 82% 30.17 in 10.0 mi North 9.2 mph - N/A   Overcast
2:15 AM 48.2 °F - 42.8 °F 82% 30.17 in 10.0 mi North 10.4 mph - N/A   Overcast
2:35 AM 48.2 °F - 42.8 °F 82% 30.17 in 10.0 mi North 10.4 mph - N/A   Overcast
2:55 AM 48.2 °F - 42.8 °F 82% 30.18 in 10.0 mi North 10.4 mph 16.1 mph N/A   Overcast
3:15 AM 48.2 °F - 41.0 °F 76% 30.18 in 10.0 mi North 9.2 mph - N/A   Overcast
3:55 AM 48.2 °F - 42.8 °F 82% 30.18 in 10.0 mi North 9.2 mph - N/A   Overcast
4:15 AM 48.2 °F - 42.8 °F 82% 30.18 in 10.0 mi North 5.8 mph - N/A   Overcast
4:35 AM 48.2 °F - 42.8 °F 82% 30.19 in 10.0 mi North 6.9 mph - N/A Thunderstorm Overcast
4:55 AM 46.4 °F 42.4 °F 41.0 °F 81% 30.19 in 10.0 mi North 8.1 mph - N/A   Overcast
5:35 AM 44.6 °F 42.2 °F 41.0 °F 87% 30.21 in 10.0 mi North 4.6 mph - N/A   Overcast
5:55 AM 44.6 °F 41.4 °F 39.2 °F 81% 30.22 in 10.0 mi North 5.8 mph - N/A   Mostly Cloudy
6:15 AM 44.6 °F 42.2 °F 39.2 °F 81% 30.22 in 10.0 mi North 4.6 mph - N/A   Scattered Clouds
6:35 AM 44.6 °F 42.2 °F 39.2 °F 81% 30.21 in 10.0 mi North 4.6 mph - N/A   Clear
6:55 AM 44.6 °F 43.1 °F 39.2 °F 81% 30.21 in 10.0 mi NE 3.5 mph - N/A   Clear
7:15 AM 42.8 °F 39.3 °F 39.2 °F 87% 30.22 in 10.0 mi NNE 5.8 mph - N/A   Clear
7:55 AM 44.6 °F 40.7 °F 41.0 °F 87% 30.23 in 10.0 mi North 6.9 mph - N/A   Mostly Cloudy
8:35 AM 46.4 °F 42.9 °F 41.0 °F 81% 30.25 in 10.0 mi North 6.9 mph - N/A   Clear
8:55 AM 48.2 °F - 42.8 °F 82% 30.26 in 10.0 mi North 9.2 mph - N/A   Clear
9:15 AM 50.0 °F - 42.8 °F 76% 30.27 in 10.0 mi North 8.1 mph - N/A   Clear
9:35 AM 51.8 °F - 42.8 °F 71% 30.29 in 10.0 mi North 11.5 mph 17.3 mph N/A   Mostly Cloudy
9:55 AM 48.2 °F - 41.0 °F 76% 30.29 in 10.0 mi North 11.5 mph 20.7 mph N/A   Overcast
10:15 AM 50.0 °F - 41.0 °F 71% 30.30 in 10.0 mi NNE 9.2 mph 17.3 mph N/A   Scattered Clouds
10:35 AM 51.8 °F - 41.0 °F 67% 30.31 in 10.0 mi North 9.2 mph - N/A   Scattered Clouds
10:55 AM 51.8 °F - 41.0 °F 67% 30.31 in 10.0 mi North 15.0 mph 19.6 mph N/A   Mostly Cloudy
11:15 AM 51.8 °F - 41.0 °F 67% 30.31 in 10.0 mi NNW 12.7 mph 17.3 mph N/A   Overcast
11:35 AM 51.8 °F - 39.2 °F 62% 30.31 in 10.0 mi NNW 9.2 mph 20.7 mph N/A   Overcast
11:55 AM 51.8 °F - 39.2 °F 62% 30.31 in 10.0 mi North 12.7 mph 17.3 mph N/A   Overcast
12:15 PM 51.8 °F - 37.4 °F 58% 30.31 in 10.0 mi NNW 13.8 mph 18.4 mph N/A   Overcast
12:35 PM 51.8 °F - 37.4 °F 58% 30.31 in 10.0 mi NNW 10.4 mph 16.1 mph N/A   Overcast
12:55 PM 51.8 °F - 37.4 °F 58% 30.30 in 10.0 mi NNW 11.5 mph 19.6 mph N/A   Overcast
1:15 PM 51.8 °F - 37.4 °F 58% 30.30 in 10.0 mi NNW 13.8 mph 18.4 mph N/A   Overcast
1:35 PM 51.8 °F - 37.4 °F 58% 30.30 in 10.0 mi NW 11.5 mph - N/A   Overcast
1:55 PM 51.8 °F - 37.4 °F 58% 30.29 in 10.0 mi NNW 10.4 mph 19.6 mph N/A   Overcast
2:15 PM 53.6 °F - 37.4 °F 54% 30.28 in 10.0 mi North 12.7 mph 18.4 mph N/A   Overcast
2:35 PM 53.6 °F - 35.6 °F 51% 30.28 in 10.0 mi NNE 11.5 mph - N/A   Mostly Cloudy
2:55 PM 53.6 °F - 37.4 °F 54% 30.28 in 10.0 mi NW 13.8 mph - N/A   Mostly Cloudy
3:15 PM 55.4 °F - 37.4 °F 51% 30.27 in 10.0 mi NW 13.8 mph 20.7 mph N/A   Mostly Cloudy
3:35 PM 55.4 °F - 37.4 °F 51% 30.27 in 10.0 mi NNW 12.7 mph 19.6 mph N/A   Scattered Clouds
3:55 PM 55.4 °F - 37.4 °F 51% 30.27 in 10.0 mi North 12.7 mph 18.4 mph N/A   Clear
4:15 PM 55.4 °F - 37.4 °F 51% 30.27 in 10.0 mi North 11.5 mph 20.7 mph N/A   Clear
4:35 PM 55.4 °F - 37.4 °F 51% 30.27 in 10.0 mi North 10.4 mph 17.3 mph N/A   Clear
4:55 PM 55.4 °F - 37.4 °F 51% 30.26 in 10.0 mi NNW 11.5 mph - N/A   Scattered Clouds
5:15 PM 53.6 °F - 35.6 °F 51% 30.26 in 10.0 mi NNW 9.2 mph - N/A   Scattered Clouds
5:35 PM 53.6 °F - 35.6 °F 51% 30.26 in 10.0 mi NNW 12.7 mph 17.3 mph N/A   Clear
5:55 PM 51.8 °F - 35.6 °F 54% 30.27 in 10.0 mi North 8.1 mph - N/A   Clear
6:15 PM 51.8 °F - 35.6 °F 54% 30.27 in 10.0 mi NNW 6.9 mph - N/A   Clear
6:35 PM 51.8 °F - 35.6 °F 54% 30.27 in 10.0 mi NNW 6.9 mph - N/A   Clear
6:55 PM 48.2 °F - 35.6 °F 62% 30.28 in 10.0 mi NNW 4.6 mph - N/A   Clear
7:15 PM 48.2 °F - 35.6 °F 62% 30.29 in 10.0 mi NNW 8.1 mph - N/A   Clear
7:35 PM 48.2 °F - 35.6 °F 62% 30.30 in 10.0 mi NNW 5.8 mph - N/A   Clear
7:55 PM 48.2 °F - 35.6 °F 62% 30.31 in 10.0 mi North 6.9 mph - N/A   Clear
8:15 PM 46.4 °F 42.4 °F 35.6 °F 66% 30.31 in 10.0 mi North 8.1 mph - N/A   Clear
8:35 PM 44.6 °F 40.2 °F 35.6 °F 71% 30.31 in 10.0 mi North 8.1 mph - N/A   Clear
8:55 PM 46.4 °F 41.9 °F 33.8 °F 62% 30.31 in 10.0 mi NNW 9.2 mph - N/A   Clear
9:15 PM 46.4 °F 42.9 °F 33.8 °F 62% 30.31 in 10.0 mi North 6.9 mph - N/A   Clear
9:35 PM 44.6 °F 40.2 °F 33.8 °F 66% 30.32 in 10.0 mi North 8.1 mph - N/A   Clear
10:35 PM 44.6 °F 40.2 °F 33.8 °F 66% 30.33 in 10.0 mi North 8.1 mph - N/A   Clear
11:15 PM 44.6 °F 39.2 °F 33.8 °F 66% 30.33 in 10.0 mi NNW 10.4 mph - N/A   Clear
11:35 PM 42.8 °F 36.6 °F 33.8 °F 70% 30.33 in 10.0 mi NNW 11.5 mph - N/A   Clear
11:55 PM 42.8 °F 37.5 °F 33.8 °F 70% 30.33 in 10.0 mi NNW 9.2 mph - N/A   Clear